Back to catalog

ARIANE 5 DEB

SYLDA

AliveHEO
NORAD 42743·DEBRIS·🇫🇷 France

Launched Jun 1, 2017 from Guiana Space Centre

Loading…

Next Passes (next 24 hours)

TLE

FreshSource: Space-Track

Epoch: Sep 14, 2026, 03:36 UTC

1 42743U 17029D   26257.15063690  .00056766  00000-0  68622-2 0  9997
2 42743   5.9418 133.4012 6225841  21.0080 356.2010  3.73212451 92200

Track ARIANE 5 DEB in real time with AllMySat

Download on the App Store